Volver al catálogo

COSMOS 2251 DEB

ActivoLEO
NORAD 33792·DEBRIS·🇷🇺 Russia

Lanzado Jun 16, 1993 desde Plesetsk Cosmodrome

Loading…

Próximos Pases (próximas 24 horas)

TLE

ActualizadoSource: Space-Track

Época: Sep 14, 2026, 07:05 UTC

1 33792U 93036AH  26257.29573645  .00000454  00000-0  45240-3 0  9999
2 33792  73.8972 265.0590 0432499 280.9487  88.2739 13.46226854861506

Sigue COSMOS 2251 DEB en tiempo real con AllMySat

Download on the App Store